Regional Weather Roundup
Issued by NWS

Home | Current Version | Previous Version | Graphics & Text | Print | Product List | Glossary On
Versions: 1 2 3 4 5 6 7 8 9 10 11 12 13 14 15 16 17 18 19 20 21 22 23 24 25 26 27
000
ASUS45 KBOU 252207
RWRCO

WEATHER ROUNDUP FOR COLORADO
NATIONAL WEATHER SERVICE DENVER/BOULDER CO
400 PM MDT THU AUG 25 2016

NOTE: "FAIR" INDICATES FEW OR NO CLOUDS BELOW 12000 FEET WITH NO
SIGNIFICANT WEATHER AND/OR OBSTRUCTIONS TO VISIBILITY.

COZ001>005-013-030-031-252300-
...NORTHWEST COLORADO...

CITY           SKY/WX    TMP DP  RH WIND       PRES   REMARKS
CRAIG          FAIR      73  34  23 W12       30.18F
HAYDEN         FAIR      70  30  23 W17G23    30.21F
MEEKER         FAIR      71  32  23 E5        30.20F
MOUNT WERNER   NOT AVBL
STEAMBOAT SPGS FAIR      67  34  29 SW12      30.23S
WALDEN         PTSUNNY   61  28  29 SW10G20   30.30F
$$

COZ006>008-011-252300-
...WEST CENTRAL VALLEYS...

CITY           SKY/WX    TMP DP  RH WIND       PRES   REMARKS
GRAND JUNCTION FAIR      80  37  21 S7        30.04F
MONTROSE       FAIR      76  41  28 S15       30.12F
EAGLE          SUNNY     72  34  25 NE6       30.22F
RIFLE          PTSUNNY   77  34  21 CALM      30.12F
DELTA          FAIR      82  39  21 SW6       30.08S
NUCLA          FAIR      77  34  20 SW12G17   30.14F
$$

COZ017>023-064>068-252300-
...SOUTHWEST COLORADO...

CITY           SKY/WX    TMP DP  RH WIND       PRES   REMARKS
DURANGO        FAIR      69  41  36 NE7       30.22F
CORTEZ         PTSUNNY   80  42  25 S9        30.13F
PAGOSA SPRINGS PTSUNNY   56  45  66 NE12G17   30.34F
TELLURIDE      FAIR      62  41  46 SE6       30.36F
WOLF CREEK PAS CLOUDY    34  34 100 S12       30.61F WCI  25
$$

COZ009-010-012-014-032>034-037-058>063-252300-
...CENTRAL COLORADO...

CITY           SKY/WX    TMP DP  RH WIND       PRES   REMARKS
ASPEN          FAIR      63  38  39 SE12G21   30.28F
BUENA VISTA    FAIR      59  37  43 N7        30.33S
COPPER MTN     FAIR      46  32  57 S12       30.53F
BERTHOUD PASS  PTSUNNY   34  23  64 N6        30.56F HAZE    WCI  29
COTTONWOOD PAS FAIR      55  32  41 W3        30.43F
GUNNISON       NOT AVBL
KREMMLING      FAIR      63  36  36 SE18      30.30F
LEADVILLE      FAIR      50  31  48 W3        30.41F
MONARCH PASS   PTSUNNY   41  34  75 SW16      30.66F
SALIDA         PTSUNNY   56  48  72 S6        30.41R
SUNLIGHT       FAIR      55  37  50 SW3       30.47F
WILKERSON PASS FAIR      41  36  81 W7        30.56S
$$

COZ069>075-252300-
...SAN LUIS VALLEY/SANGRE DE CRISTO MOUNTAINS...

CITY           SKY/WX    TMP DP  RH WIND       PRES   REMARKS
ALAMOSA        CLOUDY    65  33  30 SW21G32   30.32R
LA VETA PASS   PTSUNNY   54  46  76 NE7       30.48R
SAGUACHE       CLOUDY    52  46  82 N8        30.40R
$$

COZ035-036-038>040-252300-
...NORTHERN COLORADO FRONT RANGE...

CITY           SKY/WX    TMP DP  RH WIND       PRES   REMARKS
DENVER INTL AP CLOUDY    67  47  48 W15       30.23R THUNDER
DMNS CITY PARK   N/A     60  48  64 NW8G25    30.27R
AURORA         LGT RAIN  62  49  62 W12       30.27R
FRONT RANGE AP CLOUDY    72  45  37 W20       30.23R
ERIE MUNI ARPT CLOUDY    59  49  68 SW5       30.25R
BOULDER MUN AP PTSUNNY   59  50  72 S3        30.24F
CENTENNIAL     CLOUDY    60  50  69 W9        30.28R THUNDER
BROOMFIELD     TSTM      55  52  88 W7        30.28R
FORT COLLINS   FAIR      61  46  59 CALM      30.21F
LONGMONT       PTSUNNY   62  54  75 E6        30.24F
$$

COZ041-046-047-076>085-087-088-252300-
...PIKES PEAK/PALMER DIVIDE AND SOUTHERN FOOTHILLS...

CITY           SKY/WX    TMP DP  RH WIND       PRES   REMARKS
COLO. SPRINGS  PTSUNNY   69  41  36 S12       30.26S
A. F. ACADEMY  PTSUNNY   64  40  41 NW17G32   30.32R THUNDER
SCHRIEVER AFB  NOT AVBL
ELLICOTT       NOT AVBL
FALCON         FAIR      66  40  37 S10       30.31R
FORT CARSON    NOT AVBL
LIMON          FAIR      73  40  30 SE13G18   30.21S
MONUMENT HILL  LGT RAIN  52  46  82 NW17G26   30.35R
TRINIDAD       FAIR      73  49  42 NE9       30.20F
$$

COZ042>045-048>051-090-091-252300-
...NORTHEAST COLORADO...

CITY           SKY/WX    TMP DP  RH WIND       PRES   REMARKS
GREELEY ARPT   CLOUDY    70  43  37 S9        30.20F
AKRON          FAIR      75  40  28 E10G26    30.19F
BURLINGTON     FAIR      76  45  33 SE10G21   30.18F
WRAY           FAIR      81  39  22 E12G17    30.17F
STERLING       FAIR      79  41  25 S6        30.17S
HOLYOKE        FAIR      79  43  27 SE9G17    30.18F
FORT MORGAN    FAIR      75  37  24 E12       30.19S
$$

COZ086-089-092>099-252300-
...SOUTHEAST COLORADO...

CITY           SKY/WX    TMP DP  RH WIND       PRES   REMARKS
PUEBLO         FAIR      78  44  29 SE13      30.15F
LA JUNTA       FAIR      77  51  40 SE12      30.14F
LAMAR          FAIR      74  55  51 E10G17    30.13F
SPRINGFIELD      N/A     72  58  61 E10       30.16F
$$




USA.gov is the U.S. government's official web portal to all federal, state and local government web resources and services.